星链-36601(STARLINK-36601)

导读

STARLINK-36601是美国太空探索技术公司(SpaceX)于2026年1月30日发射的星链(Starlink)低轨卫星,运行于近地轨道,属于星链全球卫星互联网星座的组成部分。它继承了星链成熟技术路线,配备先进通信设备,为全球用户提供高速低延迟宽带服务,助力偏远地区联网、特殊场景通信覆盖,推动全球无缝网络连接构建。

Basic Information
目录编号:
67618
目录名称:
STARLINK-36601
国际标识:
2026-020B
轨道中心:
EARTH
卫星名称:
星链-36601
卫星全名:
星链-36601(STARLINK-36601)
卫星状态:
在轨 (已飞行217 天)
发射日期:
2026-01-30 UTC
国别 :
美国 (US)
星等 :
--
Orbit Information
数据来源 国际轨道数据 AOE轨道数据
星历时间 2026-09-04T14:27:19+0800
11小时前
查看轨道信息
2026-09-03T23:00:00+0800
1天前
查看轨道信息
半长轴 6861.174km 6861.215km
偏心率 0.0000957 0.0001274
轨道倾角 42.999° 42.999°
近地点辐角 278.342° 266.517°
升交点赤经 211.366° 215.002°
平近点角 81.732° 148.010°
近地点 482.38km 482.203km
远地点 483.694km 483.953km
周期 94.266分钟 94.267分钟
每日圈数 15.275841 15.275705
Detailed Information
固有亮度:
5
最大亮度:
2.5
卫星平台:
Starlink V1.0
覆盖范围:
全球
运营商:
太空探索技术公司
运营商所在国:
美国
制造商(研发单位):
太空探索技术公司
制造商所在国:
美国
使用方式:
暂无
Satellite Introduction
Starlink 计划是 SpaceX 推出的全球卫星互联网项目,通过发射低轨道卫星,为全球尤其是偏远地区提供高速、低延迟的互联网服务。自 2019 年起,Starlink 已部署数千颗卫星,旨在缩小全球数字鸿沟,推动互联网普及。该项目还为军事、航空等行业提供通信支持,带来广泛经济效益。
2D Orbit Map
3D Orbit Map
Orbit Altitude Analysis Chart
Orbit Inclination Analysis Chart
Orbit Comprehensive Analysis Chart
View Comprehensive Chart
Conjunction Data List
Event ID Objects TCA Miss Dist (km) Collision Risk Probability Collision Risk Index (CRI) Action
CDM_260906-231206-275406-761821
2026-09-06T
23:12:31+0000
0.442 km
远距离
7.208357E-5 中风险 0.72
CDM_260906-160406-681306-761821
2026-09-06T
16:04:58+0000
0.580 km
远距离
4.549913E-5 中风险 0.68
CDM_260906-174206-275406-761821
2026-09-06T
17:42:59+0000
0.580 km
远距离
3.321838E-5 中风险 0.65
CDM_260906-134306-681306-761821
2026-09-06T
13:43:44+0000
1.005 km
极远距离
7.579862E-6 低风险 0.53
CDM_260830-155805-750006-761821
2026-08-30T
15:58:39+0000
1.646 km
极远距离
3.63099E-6 低风险 0.46
CDM_260906-191706-275406-761821
2026-09-06T
19:17:08+0000
1.265 km
极远距离
2.514445E-6 低风险 0.43
CDM_260906-213806-275406-761821
2026-09-06T
21:38:22+0000
1.460 km
极远距离
1.616774E-6 低风险 0.39
CDM_260906-120906-681306-761821
2026-09-06T
12:09:35+0000
2.110 km
极远距离
8.530018E-7 极低风险 0.34
CDM_260906-160806-275406-761821
2026-09-06T
16:08:50+0000
2.292 km
极远距离
5.546172E-7 极低风险 0.3
CDM_260907-004606-275406-761821
2026-09-07T
00:46:40+0000
2.316 km
极远距离
5.451077E-7 极低风险 0.3